[[{"header":{"parameterUnit":"m.s-1","parameterCategory":1,"la1":30.2991,"la2":30.254,"lo1":-89.0895,"lo2":-89.0444,"dy":0.0017,"dx":0.0017,"nx":28,"ny":28,"refTime":"2025-04-02T03:00:00:Z","depth":0,"parameterNumber":2,"parameterNumberName":"U-component_of_WINDS"},"data":[0,0,0,0,0,0,0,0,0,0,0,0,0,0,0,0,0,0,0,0,0,0,0,0,0,0,0,0,0,0,0,0,0,0,0,0,0,0,0,0,0,0,0,0,0,0,0,0,0,0,0,0,0,0,0,0,0,0,-6.3752,-6.3753,0,-6.3856,-6.3858,-6.3859,-6.3826,-6.3824,-6.3822,-6.382,-6.3925,-6.393,-6.3934,0,0,0,0,0,0,0,0,0,0,0,0,0,-6.3523,-6.3527,-6.3752,-6.3753,-6.3754,-6.3856,-6.3858,-6.3859,-6.3827,-6.3824,-6.3821,-6.3819,-6.3923,-6.3929,-6.3935,0,0,0,0,0,0,0,0,0,0,0,0,0,-6.3624,-6.3529,-6.3751,-6.375,-6.3751,-6.3856,-6.3858,-6.3859,-6.3827,-6.3824,-6.3821,-6.3818,-6.3921,-6.3928,-6.3936,-6.4047,0,0,-6.3958,-6.3961,0,0,0,0,0,0,0,0,-6.3619,-6.3633,-6.3749,-6.3751,-6.3752,-6.3825,-6.3815,-6.3922,-6.3828,-6.3798,-6.382,-6.3816,-6.3894,-6.3903,-6.393,-6.4051,-6.4056,-6.3958,-6.3963,-6.3966,-6.3968,0,0,0,0,0,0,0,-6.3612,-6.3628,-6.3793,-6.3751,-6.3753,-6.3745,-6.3755,-6.3835,-6.3863,-6.3801,-6.3799,-6.3812,-6.3894,-6.3923,-6.3932,-6.4058,-6.3958,-6.3965,-6.3969,-6.3972,-6.4276,-6.4279,0,0,0,0,0,0,-6.3604,-6.3622,-6.379,-6.3796,-6.3676,-6.3751,-6.3763,-6.3805,-6.3862,-6.3868,-6.3814,-6.381,-6.3912,-6.3924,-6.3936,-6.4069,-6.3966,-6.3973,-6.3977,-6.4272,-6.4276,-6.428,0,0,0,0,0,0,-6.3599,-6.3619,-6.3785,-6.3709,-6.3729,-6.3759,-6.3806,-6.3809,-6.3838,-6.3873,-6.3877,-6.3839,-6.391,-6.3926,-6.402,-6.4072,-6.3976,-6.3983,-6.4268,-6.4273,-6.4278,-6.4336,0,0,0,0,0,0,-6.3593,-6.3618,-6.366,-6.371,-6.3734,-6.3867,-6.3809,-6.3813,-6.385,-6.3845,-6.3897,-6.3902,-6.3909,-6.4009,-6.4027,-6.408,-6.3988,-6.4263,-6.427,-6.4277,-6.4329,-6.4343,-6.4354,0,0,0,0,0,-6.3585,-6.3672,-6.3662,-6.3683,-6.3787,-6.387,-6.3884,-6.389,-6.3855,-6.3897,-6.3921,-6.3901,-6.4065,-6.4019,-6.4039,-6.4095,-6.4259,-6.4268,-6.4276,-6.4324,-6.434,-6.4354,0,0,0,0,0,0,-6.3625,-6.3678,-6.3668,-6.3774,-6.3818,-6.3865,-6.3918,-6.3907,-6.3961,-6.3954,-6.396,-6.3972,-6.4068,-6.4091,-6.404,-6.4206,-6.4157,-6.4169,-6.4186,-6.4202,-6.4214,-6.4205,-6.3994,0,0,0,0,0,-6.3647,-6.3711,-6.3753,-6.3842,-6.3865,-6.3889,-6.3925,-6.3926,-6.3972,-6.399,-6.402,-6.4064,-6.4126,-6.4166,-6.4224,-6.4334,-6.4344,-6.4383,-6.4396,-6.4406,-6.4415,-6.4475,-6.4492,-6.4308,-6.4308,-6.4307,0,0,-6.3692,-6.3728,-6.3768,-6.3852,-6.3886,-6.3951,-6.3904,-6.3975,-6.4023,-6.4001,-6.409,-6.4115,-6.4165,-6.4267,-6.4313,-6.4289,-6.4469,-6.4416,-6.4424,-6.4428,-6.4485,-6.4502,-6.4518,-6.4313,-6.4312,-6.4311,0,0,-6.3805,-6.3841,-6.3918,-6.3954,-6.4007,-6.4023,-6.4042,-6.4091,-6.4106,-6.4197,-6.4182,-6.424,-6.4345,-6.4382,-6.4414,-6.4545,-6.4528,-6.4564,-6.4627,-6.4685,-6.47,-6.4713,-6.4758,-6.4774,-6.4575,-6.4575,-6.4575,0,-6.3853,-6.3951,-6.3959,-6.4032,-6.4069,-6.4054,-6.4132,-6.4167,-6.4236,-6.4262,-6.4235,-6.4368,-6.4401,-6.4511,-6.4544,-6.4571,-6.4592,-6.4556,-6.4697,-6.471,-6.4722,-6.4765,-6.4782,-6.4579,-6.4578,-6.4578,-6.4578,0,-6.4007,-6.4076,-6.4132,-6.42,-6.4244,-6.432,-6.4339,-6.4383,-6.4382,-6.44,-6.4493,-6.4533,-6.4599,-6.4626,-6.4625,-6.4736,-6.472,-6.4696,-6.4645,-6.4744,-6.4784,-6.48,-6.4584,-6.4583,-6.4582,-6.4581,0,0,-6.4145,-6.4219,-6.424,-6.427,-6.433,-6.4382,-6.4458,-6.4524,-6.456,-6.461,-6.4672,-6.4764,-6.4742,-6.4779,-6.4783,-6.4834,-6.4934,-6.4803,-6.4804,-6.4824,-6.5057,-6.5073,-6.5092,-6.4925,-6.4928,-6.4931,-6.5052,0,-6.4262,-6.4394,-6.4405,-6.4523,-6.4586,-6.4575,-6.464,-6.4683,-6.4704,-6.476,-6.4782,-6.4846,-6.4814,-6.4836,-6.4886,-6.4911,-6.498,-6.4903,-6.4981,-6.4984,-6.4965,-6.5113,-6.513,-6.5242,-6.5068,-6.5071,-6.5073,0,-6.4415,-6.4469,-6.4595,-6.4646,-6.4672,-6.4731,-6.4792,-6.4847,-6.4897,-6.4908,-6.4951,-6.4948,-6.5025,-6.4976,-6.5082,-6.5029,-6.5062,-6.508,-6.5084,-6.5089,-6.5031,-6.5119,-6.5278,-6.5294,-6.5098,-6.5096,-6.5094,0,-6.45,-6.4606,-6.4694,-6.4721,-6.4784,-6.4825,-6.4853,-6.4899,-6.4938,-6.4993,-6.5018,-6.5081,-6.5115,-6.5163,-6.5178,-6.5141,-6.5283,-6.5235,-6.5293,-6.5293,-6.532,-6.5317,-6.5484,-6.5348,-6.5347,-6.5347,-6.5347,0,-6.4627,-6.4703,-6.4733,-6.4787,-6.4873,-6.4885,-6.497,-6.4995,-6.5037,-6.5096,-6.5091,-6.5146,-6.5163,-6.5221,-6.5234,-6.5319,-6.5335,-6.5345,-6.5347,-6.5344,-6.5342,-6.5363,-6.5354,-6.5351,-6.535,-6.535,-6.5349,0,-6.4735,-6.4758,-6.4853,-6.4906,-6.4921,-6.4981,-6.5026,-6.5078,-6.5099,-6.5173,-6.5191,-6.5223,-6.5292,-6.5312,-6.5394,-6.5403,-6.5502,-6.5498,-6.5485,-6.5484,-6.554,-6.5534,-6.5723,-6.5748,-6.5598,-6.5599,-6.5601,0,-6.4813,-6.4871,-6.493,-6.497,-6.5,-6.5063,-6.5103,-6.5119,-6.5162,-6.5224,-6.5268,-6.5336,-6.5391,-6.5501,-6.5531,-6.5595,-6.5591,-6.5653,-6.56,-6.5595,-6.5588,-6.5583,-6.5589,-6.5661,-6.5663,-6.5664,-6.5665,0,-6.4948,-6.4957,-6.5015,-6.5079,-6.5128,-6.5178,-6.5227,-6.5259,-6.5282,-6.533,-6.5401,-6.5444,-6.5529,-6.5596,-6.5661,-6.5689,-6.5681,-6.5683,-6.5699,-6.5694,-6.5683,-6.5688,-6.5509,-6.5677,-6.5676,-6.5675,-6.5674,-6.5674,-6.5041,-6.5092,-6.5142,-6.5208,-6.5247,-6.5293,-6.5344,-6.5373,-6.5432,-6.5502,-6.5509,-6.5584,-6.5634,-6.572,-6.5752,-6.5812,-6.5794,-6.5818,-6.5823,-6.5828,-6.5832,-6.5677,-6.5824,-6.5824,-6.5824,-6.5823,-6.5823,0,-6.5174,-6.5206,-6.5267,-6.5335,-6.5387,-6.5378,-6.5432,-6.5475,-6.5542,-6.5589,-6.5644,-6.5725,-6.5791,-6.5828,-6.5894,-6.5935,-6.5933,-6.5951,-6.5946,-6.5953,-6.5845,-6.5823,-6.5952,-6.5952,-6.5952,-6.5952,-6.5952,-6.5952,-6.5248,-6.5334,-6.535,-6.5456,-6.5488,-6.5562,-6.5594,-6.5636,-6.5674,-6.5765,-6.582,-6.5844,-6.5887,-6.5957,-6.6017,-6.6026,-6.6049,-6.607,-6.6076,-6.5974,-6.5961,-6.5948,-6.5927,-6.6075,-6.6075,-6.6179,-6.618,-6.618]},{"header":{"parameterUnit":"m.s-1","parameterCategory":1,"la1":30.2991,"la2":30.254,"lo1":-89.0895,"lo2":-89.0444,"dy":0.0017,"dx":0.0017,"nx":28,"ny":28,"refTime":"2025-04-02T03:00:00:Z","depth":0,"parameterNumber":3,"parameterNumberName":"V-component_of_WINDS"},"data":[0,0,0,0,0,0,0,0,0,0,0,0,0,0,0,0,0,0,0,0,0,0,0,0,0,0,0,0,0,0,0,0,0,0,0,0,0,0,0,0,0,0,0,0,0,0,0,0,0,0,0,0,0,0,0,0,0,0,3.8782,3.8784,0,3.8924,3.8926,3.8927,3.897,3.8969,3.8968,3.8968,3.9108,3.9112,3.9117,0,0,0,0,0,0,0,0,0,0,0,0,0,3.8546,3.855,3.8782,3.8784,3.8786,3.8924,3.8926,3.8928,3.897,3.8969,3.8968,3.8967,3.9107,3.9112,3.9117,0,0,0,0,0,0,0,0,0,0,0,0,0,3.8664,3.8552,3.8782,3.8824,3.8829,3.8923,3.8926,3.8928,3.897,3.8969,3.8968,3.8967,3.9105,3.9111,3.9118,3.918,0,0,3.9138,3.9141,0,0,0,0,0,0,0,0,3.8657,3.8673,3.8816,3.8821,3.8827,3.8928,3.8894,3.9012,3.897,3.8916,3.8968,3.8967,3.9049,3.906,3.9089,3.9186,3.9192,3.9139,3.9143,3.9145,3.9147,0,0,0,0,0,0,0,3.8649,3.8667,3.8838,3.8818,3.8825,3.8835,3.885,3.8917,3.8987,3.8921,3.8924,3.8941,3.9052,3.9082,3.9092,3.9194,3.9138,3.9144,3.9148,3.9151,3.9353,3.9355,0,0,0,0,0,0,3.8634,3.866,3.8834,3.8843,3.8738,3.884,3.8857,3.8897,3.8986,3.8999,3.8942,3.8942,3.9071,3.9085,3.9097,3.9178,3.9145,3.9151,3.9155,3.9352,3.9354,3.9355,0,0,0,0,0,0,3.8629,3.8649,3.8828,3.8752,3.8776,3.8845,3.8889,3.89,3.8931,3.9002,3.9014,3.896,3.9071,3.9088,3.916,3.9184,3.9154,3.916,3.935,3.9352,3.9354,3.9339,0,0,0,0,0,0,3.8622,3.8647,3.8672,3.8753,3.878,3.8889,3.889,3.8904,3.8943,3.8945,3.9023,3.9034,3.9072,3.915,3.9167,3.9192,3.9166,3.9348,3.9351,3.9354,3.9337,3.934,3.9342,0,0,0,0,0,3.8614,3.866,3.8673,3.8694,3.8812,3.889,3.8906,3.8949,3.8944,3.897,3.9016,3.9032,3.9178,3.9157,3.9176,3.9204,3.9347,3.935,3.9354,3.9336,3.934,3.9342,0,0,0,0,0,0,3.8578,3.8671,3.8686,3.876,3.8817,3.8897,3.893,3.895,3.9008,3.9008,3.9058,3.9075,3.9144,3.9181,3.9156,3.927,3.9263,3.927,3.9244,3.9247,3.925,3.9239,3.9171,0,0,0,0,0,3.8579,3.8636,3.8714,3.8771,3.88,3.886,3.8895,3.8925,3.8985,3.9008,3.906,3.9116,3.9176,3.9213,3.9271,3.9343,3.9361,3.9372,3.9374,3.9376,3.9381,3.9425,3.9431,3.9366,3.9366,3.9366,0,0,3.8581,3.8639,3.8671,3.8766,3.8813,3.8871,3.888,3.8939,3.8983,3.9017,3.9089,3.9129,3.9196,3.9269,3.9303,3.9301,3.9404,3.938,3.9381,3.9386,3.9429,3.9435,3.944,3.9368,3.9368,3.9367,0,0,3.8614,3.8663,3.8719,3.8767,3.884,3.888,3.8893,3.8971,3.9,3.9074,3.9102,3.9153,3.9253,3.9301,3.9338,3.9394,3.9411,3.9411,3.9423,3.9465,3.947,3.9475,3.9497,3.9504,3.9416,3.9416,3.9416,0,3.8607,3.8696,3.8744,3.8804,3.8845,3.8882,3.8938,3.8982,3.9069,3.9097,3.9094,3.9224,3.9271,3.9357,3.9371,3.9399,3.9416,3.9402,3.9466,3.9471,3.9476,3.9498,3.9505,3.9416,3.9416,3.9416,3.9416,0,3.8685,3.8746,3.8782,3.8869,3.8914,3.8971,3.9028,3.9068,3.9094,3.9134,3.921,3.9269,3.9341,3.9363,3.9387,3.9453,3.9451,3.9456,3.945,3.9482,3.9502,3.9511,3.9415,3.9415,3.9415,3.9416,0,0,3.8698,3.8813,3.8825,3.8867,3.8951,3.8999,3.9059,3.9132,3.9166,3.9225,3.9278,3.9363,3.9371,3.9413,3.9443,3.9479,3.9522,3.9481,3.9483,3.9488,3.9601,3.9597,3.9606,3.9535,3.9536,3.9538,3.9596,0,3.8744,3.8854,3.89,3.8989,3.9047,3.9084,3.9137,3.9194,3.9234,3.9289,3.9333,3.9394,3.9398,3.9424,3.9462,3.9509,3.9546,3.9505,3.9584,3.9586,3.9567,3.9617,3.9612,3.9665,3.9605,3.9606,3.9607,0,3.8811,3.8875,3.897,3.9051,3.9077,3.9123,3.9196,3.9247,3.9314,3.9341,3.939,3.9419,3.9484,3.9474,3.9564,3.9535,3.957,3.9599,3.9602,3.9611,3.9599,3.9629,3.9682,3.969,3.962,3.9619,3.9618,0,3.8814,3.8923,3.8995,3.9028,3.9124,3.9156,3.9197,3.9263,3.9304,3.9367,3.9395,3.9463,3.9501,3.9553,3.96,3.9588,3.9687,3.968,3.9711,3.971,3.973,3.9729,3.9791,3.9751,3.9751,3.975,3.975,0,3.8861,3.8918,3.8998,3.9042,3.9108,3.9161,3.9224,3.9267,3.9326,3.9379,3.9414,3.9464,3.9522,3.9579,3.9616,3.9687,3.9702,3.9726,3.9736,3.9724,3.9721,3.9748,3.9746,3.9753,3.9752,3.9752,3.9751,0,3.8875,3.8931,3.9012,3.9097,3.912,3.9165,3.9237,3.9282,3.9324,3.9392,3.9411,3.9477,3.9547,3.9599,3.9687,3.9712,3.9788,3.9797,3.9766,3.9771,3.98,3.9798,3.9883,3.9898,3.9846,3.9846,3.9847,0,3.8902,3.8948,3.9038,3.9078,3.9119,3.9182,3.9226,3.928,3.9324,3.9405,3.944,3.9512,3.9573,3.9681,3.9737,3.9806,3.9818,3.9843,3.9828,3.9816,3.982,3.9818,3.9823,3.9845,3.9845,3.9846,3.9846,0,3.8944,3.8971,3.9033,3.9107,3.9159,3.9219,3.9279,3.9309,3.9374,3.9422,3.9495,3.9542,3.9634,3.9706,3.9781,3.9822,3.9845,3.985,3.9862,3.9851,3.9832,3.9845,3.9773,3.9848,3.9848,3.9848,3.9848,3.9848,3.8967,3.9011,3.9083,3.9152,3.9204,3.926,3.9308,3.9358,3.942,3.9501,3.9529,3.9604,3.9671,3.9775,3.9817,3.9877,3.9877,3.9893,3.9897,3.99,3.9901,3.9822,3.989,3.989,3.989,3.989,3.989,0,3.9013,3.9062,3.9126,3.9211,3.9266,3.9285,3.9354,3.9398,3.9465,3.9527,3.9587,3.9671,3.9742,3.9804,3.9878,3.9913,3.9926,3.9931,3.9929,3.9939,3.9895,3.9879,3.992,3.992,3.992,3.9919,3.9919,3.9919,3.9044,3.912,3.9155,3.9257,3.9305,3.9381,3.9419,3.9471,3.9521,3.9615,3.9674,3.9716,3.9778,3.9857,3.9923,3.9939,3.9965,3.9968,3.9987,3.9945,3.9941,3.9938,3.9923,3.9973,3.9973,4.0026,4.0027,4.0027]}]]